| time (UTC) | temp F | wind direction | speed MPH | gust MPH | rain 1hr in | rain 24hr in | rain mn in | humidity % | barometer mb |
| 20260504170934 | 78 | 242 | 11.0 | 37.0 | 0.00 | 0.00 | 0.00 | 39 | 1010.4 |
| 20260504170430 | 78 | 247 | 7.0 | 25.0 | 0.00 | 0.00 | 0.00 | 39 | 1010.4 |
| 20260504160349 | 77 | 258 | 9.0 | 22.0 | 0.00 | 0.00 | 0.00 | 40 | 1011.1 |
| 20260504150814 | 73 | 251 | 9.0 | 20.0 | 0.00 | 0.00 | 0.00 | 52 | 1011.7 |
| 20260504150311 | 73 | 240 | 13.0 | 16.0 | 0.00 | 0.00 | 0.00 | 52 | 1011.5 |
| 20260504141241 | 69 | 236 | 7.0 | 15.0 | 0.00 | 0.00 | 0.00 | 62 | 1012.2 |
| 20260504140737 | 69 | 233 | 9.0 | 16.0 | 0.00 | 0.00 | 0.00 | 63 | 1012.1 |
| 20260504140233 | 68 | 254 | 4.0 | 9.0 | 0.00 | 0.00 | 0.00 | 65 | 1012.1 |
| 20260504130702 | 64 | 255 | 6.0 | 14.0 | 0.00 | 0.00 | 0.00 | 73 | 1012.3 |
| 20260504130157 | 63 | 239 | 7.0 | 12.0 | 0.00 | 0.00 | 0.00 | 74 | 1012.0 |
| 20260504120122 | 59 | 242 | 3.0 | 6.0 | 0.00 | 0.00 | 0.00 | 79 | 1012.1 |
| 20260504110549 | 60 | 243 | 3.0 | 8.0 | 0.00 | 0.00 | 0.00 | 76 | 1011.5 |
| 20260504100511 | 61 | 259 | 2.0 | 9.0 | 0.00 | 0.00 | 0.00 | 73 | 1011.5 |
| 20260504081904 | 62 | 224 | 7.0 | 15.0 | 0.00 | 0.00 | 0.00 | 67 | 1011.5 |
| 20260504081401 | 62 | 236 | 8.0 | 13.0 | 0.00 | 0.00 | 0.00 | 67 | 1011.4 |
| 20260504080856 | 62 | 233 | 6.0 | 15.0 | 0.00 | 0.00 | 0.00 | 66 | 1011.6 |
| 20260504080354 | 62 | 261 | 5.0 | 9.0 | 0.00 | 0.00 | 0.00 | 67 | 1011.5 |
| 20260504070321 | 64 | 253 | 13.0 | 13.0 | 0.00 | 0.00 | 0.00 | 64 | 1012.3 |
| 20260504060241 | 64 | 242 | 8.0 | 12.0 | 0.00 | 0.00 | 0.00 | 63 | 1013.0 |
| 20260504050710 | 64 | 244 | 6.0 | 9.0 | 0.00 | 0.00 | 0.00 | 64 | 1013.2 |
| 20260504050206 | 64 | 257 | 7.0 | 7.0 | 0.00 | 0.00 | 0.00 | 63 | 1013.2 |
| 20260504045704 | 64 | 233 | 4.0 | 7.0 | 0.00 | 0.00 | 0.00 | 64 | 1013.4 |
| 20260504045204 | 64 | 237 | 5.0 | 13.0 | 0.00 | 0.00 | 0.00 | 64 | 1013.5 |
| 20260504044702 | 64 | 245 | 5.0 | 10.0 | 0.00 | 0.00 | 0.00 | 64 | 1013.5 |
| 20260504044159 | 64 | 240 | 5.0 | 8.0 | 0.00 | 0.00 | 0.00 | 64 | 1013.6 |
| 20260504043656 | 64 | 216 | 3.0 | 10.0 | 0.00 | 0.00 | 0.00 | 63 | 1013.5 |
| 20260504043153 | 64 | 293 | 3.0 | 8.0 | 0.00 | 0.00 | 0.00 | 63 | 1013.4 |
| 20260504042650 | 64 | 253 | 5.0 | 13.0 | 0.00 | 0.00 | 0.00 | 63 | 1013.3 |
| 20260504042147 | 64 | 229 | 5.0 | 9.0 | 0.00 | 0.00 | 0.00 | 63 | 1013.7 |
| 20260504041643 | 65 | 241 | 2.0 | 12.0 | 0.00 | 0.00 | 0.00 | 62 | 1013.4 |
| 20260504041138 | 65 | 245 | 4.0 | 9.0 | 0.00 | 0.00 | 0.00 | 62 | 1013.5 |
| 20260504040636 | 65 | 249 | 3.0 | 10.0 | 0.00 | 0.00 | 0.00 | 62 | 1013.5 |
| 20260504040133 | 64 | 242 | 4.0 | 8.0 | 0.00 | 0.00 | 0.00 | 62 | 1013.6 |
| 20260504035629 | 65 | 251 | 4.0 | 7.0 | 0.00 | 0.00 | 0.00 | 62 | 1013.6 |
| 20260504035126 | 64 | 239 | 5.0 | 9.0 | 0.00 | 0.00 | 0.00 | 63 | 1013.7 |
| 20260504034624 | 64 | 230 | 2.0 | 7.0 | 0.00 | 0.00 | 0.00 | 63 | 1013.5 |
| 20260504034121 | 64 | 208 | 2.0 | 5.0 | 0.00 | 0.00 | 0.00 | 64 | 1013.6 |
| 20260504033619 | 64 | 266 | 3.0 | 6.0 | 0.00 | 0.00 | 0.00 | 64 | 1013.7 |
| 20260504033116 | 64 | 249 | 3.0 | 7.0 | 0.00 | 0.00 | 0.00 | 64 | 1013.6 |
| 20260504032612 | 64 | 238 | 0.0 | 5.0 | 0.00 | 0.00 | 0.00 | 63 | 1013.6 |
| 20260504032109 | 65 | 229 | 3.0 | 6.0 | 0.00 | 0.00 | 0.00 | 63 | 1013.7 |
| 20260504031607 | 64 | 185 | 0.0 | 7.0 | 0.00 | 0.00 | 0.00 | 64 | 1013.6 |
| 20260504031103 | 64 | 237 | 9.0 | 9.0 | 0.00 | 0.00 | 0.00 | 63 | 1013.8 |
| 20260504030600 | 64 | 234 | 2.0 | 6.0 | 0.00 | 0.00 | 0.00 | 64 | 1013.7 |
| 20260504030056 | 64 | 241 | 3.0 | 5.0 | 0.00 | 0.00 | 0.00 | 64 | 1013.8 |
| 20260504025553 | 64 | 239 | 3.0 | 6.0 | 0.00 | 0.00 | 0.00 | 64 | 1013.9 |
| 20260504025050 | 64 | 238 | 2.0 | 6.0 | 0.00 | 0.00 | 0.00 | 64 | 1013.8 |
| 20260504024547 | 64 | 252 | 3.0 | 7.0 | 0.00 | 0.00 | 0.00 | 64 | 1013.9 |
| 20260504024044 | 65 | 204 | 2.0 | 7.0 | 0.00 | 0.00 | 0.00 | 64 | 1013.7 |
| 20260504023540 | 65 | 229 | 3.0 | 6.0 | 0.00 | 0.00 | 0.00 | 64 | 1013.6 |
| 20260504023036 | 65 | 241 | 2.0 | 8.0 | 0.00 | 0.00 | 0.00 | 63 | 1013.6 |
| 20260504022532 | 65 | 246 | 3.0 | 9.0 | 0.00 | 0.00 | 0.00 | 62 | 1013.9 |
| 20260504022029 | 65 | 247 | 4.0 | 7.0 | 0.00 | 0.00 | 0.00 | 62 | 1013.6 |
| 20260504021526 | 65 | 235 | 4.0 | 8.0 | 0.00 | 0.00 | 0.00 | 61 | 1013.6 |
| 20260504021023 | 66 | 231 | 4.0 | 7.0 | 0.00 | 0.00 | 0.00 | 60 | 1013.5 |
| 20260504020520 | 66 | 238 | 5.0 | 9.0 | 0.00 | 0.00 | 0.00 | 60 | 1013.6 |
| 20260504020017 | 66 | 243 | 4.0 | 7.0 | 0.00 | 0.00 | 0.00 | 59 | 1013.4 |
| 20260504015513 | 66 | 222 | 3.0 | 9.0 | 0.00 | 0.00 | 0.00 | 58 | 1013.6 |
| 20260504015009 | 66 | 269 | 3.0 | 7.0 | 0.00 | 0.00 | 0.00 | 58 | 1013.5 |
| 20260504014505 | 66 | 249 | 4.0 | 6.0 | 0.00 | 0.00 | 0.00 | 57 | 1013.3 |
| 20260504014003 | 67 | 246 | 3.0 | 7.0 | 0.00 | 0.00 | 0.00 | 57 | 1013.4 |
| 20260504013501 | 67 | 210 | 3.0 | 9.0 | 0.00 | 0.00 | 0.00 | 56 | 1013.3 |
| 20260504012956 | 67 | 238 | 5.0 | 7.0 | 0.00 | 0.00 | 0.00 | 55 | 1013.4 |
| 20260504012454 | 67 | 253 | 6.0 | 8.0 | 0.00 | 0.00 | 0.00 | 54 | 1013.4 |
| 20260504011952 | 68 | 245 | 6.0 | 12.0 | 0.00 | 0.00 | 0.00 | 54 | 1013.4 |
| 20260504011448 | 68 | 217 | 2.0 | 8.0 | 0.00 | 0.00 | 0.00 | 53 | 1013.5 |
| 20260504010944 | 68 | 241 | 5.0 | 8.0 | 0.00 | 0.00 | 0.00 | 52 | 1013.3 |
| 20260504010440 | 68 | 260 | 7.0 | 9.0 | 0.00 | 0.00 | 0.00 | 51 | 1013.3 |
| 20260504005936 | 68 | 267 | 5.0 | 11.0 | 0.00 | 0.00 | 0.00 | 51 | 1013.2 |
| 20260504005433 | 69 | 256 | 5.0 | 9.0 | 0.00 | 0.00 | 0.00 | 50 | 1013.5 |
| 20260504004931 | 69 | 239 | 4.0 | 6.0 | 0.00 | 0.00 | 0.00 | 50 | 1013.4 |
| 20260504004428 | 69 | 229 | 5.0 | 8.0 | 0.00 | 0.00 | 0.00 | 49 | 1013.3 |
| 20260504003925 | 69 | 245 | 5.0 | 7.0 | 0.00 | 0.00 | 0.00 | 49 | 1013.3 |
| 20260504003421 | 69 | 246 | 6.0 | 10.0 | 0.00 | 0.00 | 0.00 | 49 | 1013.5 |
| 20260504002918 | 70 | 227 | 5.0 | 10.0 | 0.00 | 0.00 | 0.00 | 47 | 1013.3 |
| 20260504002415 | 70 | 269 | 6.0 | 14.0 | 0.00 | 0.00 | 0.00 | 46 | 1013.7 |
| 20260504001913 | 71 | 248 | 6.0 | 16.0 | 0.00 | 0.00 | 0.00 | 45 | 1013.8 |
| 20260504001410 | 71 | 255 | 6.0 | 8.0 | 0.00 | 0.00 | 0.00 | 45 | 1013.4 |
| 20260504000906 | 71 | 231 | 5.0 | 15.0 | 0.00 | 0.00 | 0.00 | 44 | 1013.6 |
| 20260504000404 | 71 | 247 | 6.0 | 12.0 | 0.00 | 0.00 | 0.00 | 44 | 1013.7 |
| 20260503235901 | 71 | 247 | 4.0 | 13.0 | 0.00 | 0.00 | 0.00 | 44 | 1013.5 |
| 20260503235359 | 72 | 248 | 11.0 | 16.0 | 0.00 | 0.00 | 0.00 | 43 | 1014.0 |
| 20260503234856 | 72 | 247 | 8.0 | 11.0 | 0.00 | 0.00 | 0.00 | 42 | 1013.8 |
| 20260503234354 | 72 | 238 | 15.0 | 22.0 | 0.00 | 0.00 | 0.00 | 41 | 1013.7 |
| 20260503233851 | 72 | 233 | 8.0 | 16.0 | 0.00 | 0.00 | 0.00 | 41 | 1013.8 |
| 20260503233347 | 72 | 246 | 6.0 | 19.0 | 0.00 | 0.00 | 0.00 | 41 | 1013.7 |
| 20260503232844 | 73 | 215 | 17.0 | 17.0 | 0.00 | 0.00 | 0.00 | 40 | 1013.8 |
| 20260503232341 | 73 | 235 | 5.0 | 17.0 | 0.00 | 0.00 | 0.00 | 41 | 1014.2 |
| 20260503231839 | 73 | 255 | 5.0 | 12.0 | 0.00 | 0.00 | 0.00 | 40 | 1014.4 |
| 20260503231336 | 73 | 253 | 4.0 | 13.0 | 0.00 | 0.00 | 0.00 | 40 | 1014.7 |
| 20260503230832 | 73 | 237 | 9.0 | 16.0 | 0.00 | 0.00 | 0.00 | 39 | 1014.4 |
| 20260503230329 | 73 | 254 | 6.0 | 14.0 | 0.00 | 0.00 | 0.00 | 39 | 1014.4 |
| 20260503225827 | 73 | 258 | 8.0 | 11.0 | 0.00 | 0.00 | 0.00 | 39 | 1014.4 |
| 20260503225322 | 73 | 260 | 6.0 | 13.0 | 0.00 | 0.00 | 0.00 | 37 | 1014.4 |
| 20260503224818 | 73 | 241 | 8.0 | 17.0 | 0.00 | 0.00 | 0.00 | 37 | 1014.7 |
| 20260503224316 | 73 | 262 | 6.0 | 15.0 | 0.00 | 0.00 | 0.00 | 38 | 1014.4 |
| 20260503223814 | 73 | 240 | 6.0 | 13.0 | 0.00 | 0.00 | 0.00 | 36 | 1014.7 |
| 20260503223311 | 73 | 231 | 9.0 | 20.0 | 0.00 | 0.00 | 0.00 | 36 | 1014.6 |
| 20260503222807 | 73 | 239 | 6.0 | 16.0 | 0.00 | 0.00 | 0.00 | 36 | 1014.6 |
| 20260503222306 | 73 | 233 | 10.0 | 16.0 | 0.00 | 0.00 | 0.00 | 35 | 1014.8 |
| 20260503221803 | 73 | 239 | 13.0 | 13.0 | 0.00 | 0.00 | 0.00 | 34 | 1014.7 |
| 20260503221301 | 73 | 245 | 8.0 | 15.0 | 0.00 | 0.00 | 0.00 | 35 | 1014.8 |
| 20260503220757 | 74 | 249 | 14.0 | 14.0 | 0.00 | 0.00 | 0.00 | 34 | 1014.9 |
| 20260503220254 | 74 | 257 | 7.0 | 12.0 | 0.00 | 0.00 | 0.00 | 34 | 1014.7 |
| 20260503215751 | 73 | 246 | 6.0 | 15.0 | 0.00 | 0.00 | 0.00 | 35 | 1014.7 |
| 20260503215248 | 73 | 246 | 12.0 | 15.0 | 0.00 | 0.00 | 0.00 | 35 | 1014.8 |
| 20260503214746 | 73 | 248 | 9.0 | 17.0 | 0.00 | 0.00 | 0.00 | 34 | 1014.9 |
| 20260503214242 | 73 | 277 | 6.0 | 13.0 | 0.00 | 0.00 | 0.00 | 34 | 1015.2 |
| 20260503213741 | 73 | 260 | 7.0 | 17.0 | 0.00 | 0.00 | 0.00 | 34 | 1015.1 |
| 20260503213238 | 73 | 262 | 7.0 | 11.0 | 0.00 | 0.00 | 0.00 | 34 | 1015.4 |
| 20260503212734 | 73 | 258 | 7.0 | 13.0 | 0.00 | 0.00 | 0.00 | 34 | 1015.3 |
| 20260503212232 | 73 | 228 | 7.0 | 18.0 | 0.00 | 0.00 | 0.00 | 32 | 1015.4 |
| 20260503211730 | 73 | 266 | 9.0 | 12.0 | 0.00 | 0.00 | 0.00 | 33 | 1015.4 |
| 20260503211225 | 73 | 242 | 13.0 | 17.0 | 0.00 | 0.00 | 0.00 | 33 | 1015.7 |
| 20260503210721 | 73 | 239 | 9.0 | 15.0 | 0.00 | 0.00 | 0.00 | 33 | 1015.6 |
| 20260503210219 | 72 | 273 | 9.0 | 14.0 | 0.00 | 0.00 | 0.00 | 32 | 1015.9 |
| 20260503205714 | 72 | 244 | 10.0 | 15.0 | 0.00 | 0.00 | 0.00 | 32 | 1016.0 |
| 20260503205210 | 72 | 240 | 5.0 | 14.0 | 0.00 | 0.00 | 0.00 | 31 | 1016.0 |
| 20260503204707 | 72 | 240 | 7.0 | 19.0 | 0.00 | 0.00 | 0.00 | 32 | 1016.1 |
| 20260503204205 | 72 | 232 | 12.0 | 26.0 | 0.00 | 0.00 | 0.00 | 32 | 1016.0 |
| 20260503203702 | 72 | 213 | 5.0 | 15.0 | 0.00 | 0.00 | 0.00 | 33 | 1016.2 |
| 20260503203159 | 73 | 278 | 11.0 | 14.0 | 0.00 | 0.00 | 0.00 | 33 | 1016.6 |
| 20260503202656 | 72 | 275 | 7.0 | 11.0 | 0.00 | 0.00 | 0.00 | 31 | 1016.6 |
| 20260503202154 | 72 | 245 | 8.0 | 19.0 | 0.00 | 0.00 | 0.00 | 31 | 1016.8 |
| 20260503201652 | 72 | 230 | 6.0 | 11.0 | 0.00 | 0.00 | 0.00 | 32 | 1016.7 |
| 20260503201149 | 71 | 243 | 9.0 | 22.0 | 0.00 | 0.00 | 0.00 | 32 | 1016.8 |
| 20260503200645 | 72 | 245 | 6.0 | 14.0 | 0.00 | 0.00 | 0.00 | 34 | 1017.0 |
| 20260503200142 | 71 | 229 | 8.0 | 14.0 | 0.00 | 0.00 | 0.00 | 34 | 1017.0 |
| 20260503195639 | 71 | 226 | 5.0 | 16.0 | 0.00 | 0.00 | 0.00 | 32 | 1017.1 |
| 20260503195136 | 71 | 231 | 6.0 | 16.0 | 0.00 | 0.00 | 0.00 | 34 | 1017.5 |
| 20260503194633 | 71 | 235 | 6.0 | 14.0 | 0.00 | 0.00 | 0.00 | 36 | 1017.5 |
| 20260503194128 | 71 | 241 | 8.0 | 19.0 | 0.00 | 0.00 | 0.00 | 37 | 1017.7 |
| 20260503193625 | 71 | 257 | 5.0 | 15.0 | 0.00 | 0.00 | 0.00 | 36 | 1017.7 |
| 20260503193121 | 71 | 228 | 7.0 | 16.0 | 0.00 | 0.00 | 0.00 | 36 | 1018.0 |
| 20260503192616 | 70 | 244 | 5.0 | 13.0 | 0.00 | 0.00 | 0.00 | 36 | 1017.9 |
| 20260503192112 | 70 | 250 | 6.0 | 13.0 | 0.00 | 0.00 | 0.00 | 38 | 1018.1 |
| 20260503191610 | 70 | 281 | 9.0 | 15.0 | 0.00 | 0.00 | 0.00 | 37 | 1018.1 |
| 20260503191106 | 69 | 277 | 11.0 | 17.0 | 0.00 | 0.00 | 0.00 | 37 | 1018.1 |
| 20260503190604 | 70 | 284 | 6.0 | 14.0 | 0.00 | 0.00 | 0.00 | 37 | 1018.2 |
| 20260503190101 | 69 | 240 | 2.0 | 15.0 | 0.00 | 0.00 | 0.00 | 40 | 1018.7 |
| 20260503185557 | 70 | 247 | 6.0 | 17.0 | 0.00 | 0.00 | 0.00 | 38 | 1018.6 |
| 20260503185056 | 69 | 230 | 11.0 | 14.0 | 0.00 | 0.00 | 0.00 | 37 | 1018.7 |
| 20260503184552 | 70 | 252 | 13.0 | 14.0 | 0.00 | 0.00 | 0.00 | 37 | 1018.9 |
| 20260503184049 | 69 | 277 | 5.0 | 11.0 | 0.00 | 0.00 | 0.00 | 39 | 1018.7 |
| 20260503183546 | 68 | 246 | 4.0 | 16.0 | 0.00 | 0.00 | 0.00 | 38 | 1019.0 |
| 20260503183043 | 69 | 239 | 5.0 | 12.0 | 0.00 | 0.00 | 0.00 | 39 | 1018.8 |
| 20260503182541 | 69 | 286 | 13.0 | 17.0 | 0.00 | 0.00 | 0.00 | 37 | 1019.0 |
| 20260503182039 | 68 | 266 | 16.0 | 16.0 | 0.00 | 0.00 | 0.00 | 38 | 1019.1 |
| 20260503181536 | 68 | 258 | 11.0 | 14.0 | 0.00 | 0.00 | 0.00 | 36 | 1019.3 |
| 20260503181032 | 69 | 249 | 13.0 | 19.0 | 0.00 | 0.00 | 0.00 | 36 | 1019.2 |
| 20260503180530 | 68 | 235 | 4.0 | 13.0 | 0.00 | 0.00 | 0.00 | 40 | 1019.2 |
| 20260503180027 | 67 | 251 | 6.0 | 13.0 | 0.00 | 0.00 | 0.00 | 42 | 1019.4 |
| 20260503175524 | 67 | 244 | 5.0 | 18.0 | 0.00 | 0.00 | 0.00 | 41 | 1019.6 |
| 20260503175021 | 67 | 263 | 8.0 | 25.0 | 0.00 | 0.00 | 0.00 | 40 | 1019.4 |
| 20260503174519 | 67 | 255 | 8.0 | 20.0 | 0.00 | 0.00 | 0.00 | 40 | 1019.8 |
| 20260503174014 | 67 | 210 | 4.0 | 18.0 | 0.00 | 0.00 | 0.00 | 40 | 1020.0 |
| 20260503173510 | 67 | 251 | 9.0 | 16.0 | 0.00 | 0.00 | 0.00 | 41 | 1020.1 |
| 20260503173007 | 67 | 258 | 8.0 | 18.0 | 0.00 | 0.00 | 0.00 | 41 | 1020.1 |
| 20260503172504 | 66 | 259 | 5.0 | 17.0 | 0.00 | 0.00 | 0.00 | 41 | 1020.3 |
| 20260503172001 | 68 | 236 | 8.0 | 22.0 | 0.00 | 0.00 | 0.00 | 38 | 1020.4 |
| 20260503171457 | 67 | 265 | 6.0 | 12.0 | 0.00 | 0.00 | 0.00 | 42 | 1020.2 |